TimeCDT,TemperatureF,Dew PointF,Humidity,Sea Level PressureIn,VisibilityMPH,Wind Direction,Wind SpeedMPH,Gust SpeedMPH,PrecipitationIn,Events,Conditions,WindDirDegrees,DateUTC
12:13 AM,28.4,17.6,64,30.11,10.0,Calm,Calm,-,N/A,,Clear,0,2012-10-07 05:13:00
12:33 AM,26.6,17.6,69,30.11,10.0,Calm,Calm,-,N/A,,Clear,0,2012-10-07 05:33:00
12:53 AM,26.6,17.6,69,30.10,10.0,Calm,Calm,-,N/A,,Clear,0,2012-10-07 05:53:00
1:13 AM,26.6,19.4,74,30.10,10.0,Calm,Calm,-,N/A,,Clear,0,2012-10-07 06:13:00
1:33 AM,26.6,19.4,74,30.10,10.0,Calm,Calm,-,N/A,,Clear,0,2012-10-07 06:33:00
2:13 AM,26.6,19.4,74,30.09,10.0,WNW,3.5,-,N/A,,Clear,300,2012-10-07 07:13:00
2:33 AM,28.4,19.4,69,30.08,10.0,WNW,4.6,-,N/A,,Clear,300,2012-10-07 07:33:00
2:53 AM,28.4,19.4,69,30.07,10.0,WNW,4.6,-,N/A,,Clear,290,2012-10-07 07:53:00
3:13 AM,28.4,19.4,69,30.07,10.0,Calm,Calm,-,N/A,,Clear,0,2012-10-07 08:13:00
3:53 AM,28.4,19.4,69,30.06,10.0,West,3.5,-,N/A,,Clear,280,2012-10-07 08:53:00
4:13 AM,30.2,19.4,64,30.05,10.0,West,4.6,-,N/A,,Clear,280,2012-10-07 09:13:00
4:33 AM,30.2,19.4,64,30.04,10.0,West,4.6,-,N/A,,Clear,280,2012-10-07 09:33:00
4:53 AM,30.2,19.4,64,30.04,10.0,West,4.6,-,N/A,,Clear,270,2012-10-07 09:53:00
5:13 AM,30.2,19.4,64,30.04,10.0,West,4.6,-,N/A,,Clear,280,2012-10-07 10:13:00
5:33 AM,30.2,19.4,64,30.03,10.0,West,4.6,-,N/A,,Clear,260,2012-10-07 10:33:00
5:53 AM,30.2,19.4,64,30.03,10.0,West,4.6,-,N/A,,Clear,270,2012-10-07 10:53:00
6:13 AM,30.2,19.4,64,30.03,10.0,West,5.8,-,N/A,,Clear,270,2012-10-07 11:13:00
6:33 AM,30.2,19.4,64,30.02,10.0,West,4.6,-,N/A,,Clear,270,2012-10-07 11:33:00
6:53 AM,30.2,19.4,64,30.02,10.0,West,4.6,-,N/A,,Clear,270,2012-10-07 11:53:00
7:13 AM,30.2,19.4,64,30.02,10.0,West,4.6,-,N/A,,Clear,270,2012-10-07 12:13:00
7:34 AM,30.2,19.4,64,30.01,10.0,West,4.6,-,N/A,,Clear,270,2012-10-07 12:34:00
7:53 AM,30.2,19.4,64,30.01,10.0,West,4.6,-,N/A,,Clear,270,2012-10-07 12:53:00
8:13 AM,32.0,21.2,64,30.00,10.0,Calm,Calm,-,N/A,,Clear,0,2012-10-07 13:13:00
8:33 AM,35.6,21.2,56,30.00,10.0,West,4.6,-,N/A,,Clear,270,2012-10-07 13:33:00
8:53 AM,35.6,21.2,56,29.99,10.0,West,3.5,-,N/A,,Clear,260,2012-10-07 13:53:00
9:13 AM,37.4,19.4,48,29.99,10.0,West,3.5,-,N/A,,Clear,270,2012-10-07 14:13:00
9:33 AM,39.2,21.2,49,29.98,10.0,West,4.6,-,N/A,,Clear,260,2012-10-07 14:33:00
9:53 AM,41.0,19.4,42,29.98,10.0,West,6.9,-,N/A,,Clear,260,2012-10-07 14:53:00
10:13 AM,44.6,17.6,34,29.97,10.0,WSW,8.1,16.1,N/A,,Clear,240,2012-10-07 15:13:00
10:33 AM,46.4,15.8,29,29.97,10.0,WSW,11.5,18.4,N/A,,Clear,240,2012-10-07 15:33:00
10:53 AM,46.4,15.8,29,29.96,10.0,WSW,8.1,16.1,N/A,,Clear,240,2012-10-07 15:53:00
11:13 AM,46.4,15.8,29,29.96,10.0,West,8.1,19.6,N/A,,Clear,260,2012-10-07 16:13:00
11:33 AM,46.4,12.2,25,29.95,10.0,West,8.1,18.4,N/A,,Clear,270,2012-10-07 16:33:00
11:53 AM,48.2,14.0,25,29.94,10.0,WSW,10.4,18.4,N/A,,Clear,250,2012-10-07 16:53:00
12:13 PM,48.2,12.2,24,29.94,10.0,WSW,11.5,21.9,N/A,,Clear,250,2012-10-07 17:13:00
12:33 PM,50.0,12.2,22,29.94,10.0,WSW,11.5,20.7,N/A,,Clear,240,2012-10-07 17:33:00
12:53 PM,50.0,10.4,20,29.93,10.0,WSW,12.7,19.6,N/A,,Scattered Clouds,250,2012-10-07 17:53:00
1:33 PM,51.8,10.4,19,29.91,10.0,WSW,10.4,20.7,N/A,,Overcast,250,2012-10-07 18:33:00
1:53 PM,50.0,10.4,20,29.90,10.0,SW,11.5,24.2,N/A,,Mostly Cloudy,230,2012-10-07 18:53:00
2:13 PM,51.8,12.2,21,29.89,10.0,WSW,10.4,17.3,N/A,,Scattered Clouds,250,2012-10-07 19:13:00
2:33 PM,50.0,10.4,20,29.88,10.0,WSW,8.1,21.9,N/A,,Clear,240,2012-10-07 19:33:00
2:53 PM,50.0,12.2,22,29.88,10.0,WSW,10.4,19.6,N/A,,Clear,250,2012-10-07 19:53:00
3:13 PM,50.0,10.4,20,29.88,10.0,West,10.4,18.4,N/A,,Scattered Clouds,260,2012-10-07 20:13:00
3:33 PM,50.0,10.4,20,29.87,10.0,WSW,4.6,18.4,N/A,,Scattered Clouds,250,2012-10-07 20:33:00
3:53 PM,50.0,12.2,22,29.86,10.0,WSW,8.1,17.3,N/A,,Scattered Clouds,250,2012-10-07 20:53:00
4:13 PM,50.0,10.4,20,29.86,10.0,West,6.9,21.9,N/A,,Scattered Clouds,260,2012-10-07 21:13:00
4:33 PM,50.0,10.4,20,29.85,10.0,WSW,6.9,17.3,N/A,,Scattered Clouds,240,2012-10-07 21:33:00
4:54 PM,50.0,8.6,19,29.85,10.0,SW,12.7,20.7,N/A,,Scattered Clouds,230,2012-10-07 21:54:00
5:14 PM,48.2,8.6,20,29.85,10.0,SW,5.8,-,N/A,,Clear,230,2012-10-07 22:14:00
5:33 PM,48.2,6.8,19,29.85,10.0,SW,6.9,16.1,N/A,,Clear,230,2012-10-07 22:33:00
5:53 PM,46.4,10.4,23,29.85,10.0,WSW,6.9,-,N/A,,Clear,240,2012-10-07 22:53:00
6:13 PM,44.6,8.6,23,29.86,10.0,WSW,8.1,-,N/A,,Clear,250,2012-10-07 23:13:00
6:33 PM,44.6,8.6,23,29.86,10.0,SW,6.9,-,N/A,,Clear,230,2012-10-07 23:33:00
6:53 PM,42.8,10.4,27,29.86,10.0,SW,8.1,-,N/A,,Clear,220,2012-10-07 23:53:00
7:13 PM,39.2,12.2,33,29.86,10.0,SW,6.9,-,N/A,,Clear,220,2012-10-08 00:13:00
7:33 PM,37.4,12.2,36,29.86,10.0,SW,4.6,-,N/A,,Clear,230,2012-10-08 00:33:00
7:53 PM,37.4,12.2,36,29.86,10.0,SW,4.6,-,N/A,,Clear,230,2012-10-08 00:53:00
8:13 PM,37.4,14.0,38,29.86,10.0,SW,4.6,-,N/A,,Clear,230,2012-10-08 01:13:00
8:33 PM,37.4,14.0,38,29.85,10.0,SW,3.5,-,N/A,,Clear,230,2012-10-08 01:33:00
8:53 PM,35.6,14.0,41,29.85,10.0,WSW,3.5,-,N/A,,Clear,240,2012-10-08 01:53:00
9:13 PM,33.8,15.8,48,29.85,10.0,Calm,Calm,-,N/A,,Clear,0,2012-10-08 02:13:00
9:33 PM,35.6,15.8,44,29.85,10.0,Calm,Calm,-,N/A,,Scattered Clouds,0,2012-10-08 02:33:00
9:53 PM,35.6,17.6,48,29.84,10.0,Calm,Calm,-,N/A,,Overcast,0,2012-10-08 02:53:00
10:13 PM,35.6,17.6,48,29.84,10.0,SW,3.5,-,N/A,,Overcast,230,2012-10-08 03:13:00
10:33 PM,37.4,19.4,48,29.83,10.0,SW,6.9,-,N/A,,Overcast,230,2012-10-08 03:33:00
10:53 PM,37.4,19.4,48,29.83,10.0,SW,6.9,-,N/A,,Overcast,230,2012-10-08 03:53:00
11:13 PM,39.2,17.6,42,29.82,10.0,SW,6.9,-,N/A,,Overcast,230,2012-10-08 04:13:00
11:33 PM,39.2,17.6,42,29.81,10.0,SW,8.1,-,N/A,,Overcast,220,2012-10-08 04:33:00
11:53 PM,39.2,15.8,39,29.81,10.0,SW,8.1,-,N/A,,Overcast,230,2012-10-08 04:53:00